Wind_Speed
43 43 44 44 44 44 45 45 45 45 45 45 45 45 46 46 47 47 48 48 48 48 49 49 49 49 49 48 49 49 48 48 47 47 47 47 46 47
43 43 43 43 43 44 44 44 44 44 45 45 45 45 45 45 46 47 47 47 47 47 47 47 48 48 48 49 49 48 48 48 48 48 48 48 48 48
42 42 42 42 42 42 43 43 43 44 44 43 44 44 44 44 45 47 48 47 48 47 47 47 47 47 47 47 48 48 47 46 47 48 48 48 48 47
40 40 40 40 41 41 42 42 43 44 44 43 43 43 44 44 45 47 48 48 48 47 46 46 45 45 46 46 46 46 45 45 45 46 47 47 47 47
38 38 39 39 39 40 41 41 41 42 43 43 43 43 44 44 44 45 46 47 47 47 46 46 45 45 45 45 44 44 44 44 44 44 44 44 45 46
38 38 39 39 39 39 39 40 40 40 41 42 42 42 43 43 43 43 44 44 45 45 45 45 45 44 44 44 44 43 43 43 43 43 43 43 44 44
38 38 39 39 39 39 39 39 39 40 40 40 41 41 42 42 41 42 43 42 43 43 44 44 44 44 45 44 43 42 42 43 43 43 44 44 44 44
36 37 37 37 38 38 38 39 40 39 39 39 40 40 40 40 40 41 42 41 42 42 43 43 44 44 43 43 43 42 42 43 43 44 44 44 44 44
34 34 35 36 36 36 37 37 38 38 38 39 38 38 39 39 40 41 41 41 41 42 42 42 43 43 43 43 42 42 43 43 44 44 44 43 43 44
32 32 33 33 34 34 34 34 35 35 36 37 37 37 37 38 39 40 40 40 40 41 42 42 42 42 41 41 42 42 42 43 43 43 43 43 43 43
30 31 31 31 31 31 31 32 32 32 33 34 35 35 36 37 38 39 39 39 38 39 40 40 39 40 40 39 39 40 42 42 42 42 42 42 42 41
28 28 28 28 28 28 29 30 31 31 32 33 34 34 34 35 36 37 38 38 38 37 37 37 37 38 37 36 37 38 39 39 40 40 40 40 40 40
27 27 27 27 27 27 28 28 29 30 30 31 31 32 33 33 33 34 35 36 36 35 34 34 33 34 34 34 34 35 36 35 35 35 36 36 37 37
26 26 26 26 25 25 25 26 26 28 29 29 29 30 30 30 30 31 31 32 32 32 31 31 30 30 30 30 30 31 31 31 31 31 32 33 33 34
25 25 25 25 25 25 25 25 26 26 27 27 26 27 27 28 29 29 28 28 28 29 29 29 28 27 27 27 27 27 28 28 29 29 29 29 29 30
24 25 25 25 25 25 25 24 25 25 24 24 24 24 24 25 25 26 25 25 25 25 26 26 26 25 25 25 25 25 26 25 26 26 26 26 27 27
24 24 24 24 24 24 23 23 23 22 21 21 21 21 21 22 22 22 22 22 22 23 23 23 23 23 23 23 23 23 24 23 23 23 24 24 24 24
23 23 22 22 22 22 22 21 21 20 20 19 19 19 19 19 19 19 19 19 20 20 21 21 21 22 22 22 22 21 20 20 21 21 22 22 22 23
21 21 20 20 20 20 20 20 19 19 19 18 18 18 18 18 18 18 18 18 18 19 19 19 19 19 19 19 19 20 19 19 19 19 19 19 19 20
18 18 18 18 18 19 19 19 19 19 19 19 18 17 17 17 17 16 16 17 17 17 17 17 16 16 16 16 16 17 17 17 17 17 17 18 18 18
17 17 17 18 18 19 19 19 19 19 19 18 17 17 16 16 16 15 15 15 15 15 15 14 14 14 14 13 14 14 15 16 16 17 17 17 17 17
15 16 16 17 17 17 17 17 17 17 17 17 17 17 17 16 15 14 14 13 13 13 13 13 13 13 13 13 13 13 14 14 15 16 17 17 16 16
14 14 14 14 15 15 16 16 16 16 15 15 15 16 15 15 14 13 12 12 11 11 11 11 12 12 12 12 12 12 12 13 13 14 15 15 16 16
Wind_Direction
263 262 260 260 259 259 259 260 260 259 257 257 257 257 257 256 257 257 257 257 259 260 261 263 263 262 263 264 264 264 264 264 265 267 269 270 271 273
263 262 261 260 260 260 260 260 261 260 259 258 257 257 257 257 257 257 256 257 259 260 262 264 263 263 264 264 265 265 265 265 266 268 269 270 271 273
264 262 261 261 261 261 261 261 261 260 260 259 258 257 257 258 258 258 257 257 258 261 263 265 264 263 264 265 265 265 265 266 267 268 270 270 271 271
264 262 261 261 262 262 262 262 262 261 261 259 258 258 258 259 259 258 258 258 260 261 263 264 265 264 265 265 265 265 265 267 268 269 270 271 271 272
263 261 261 262 262 263 263 263 263 262 261 260 260 260 260 260 261 261 260 260 261 262 264 265 265 266 266 265 265 265 267 267 267 268 269 270 272 273
262 262 262 263 264 264 263 263 262 262 262 261 261 261 262 262 262 262 261 261 262 264 265 265 265 265 265 266 266 267 267 267 268 268 269 270 272 273
263 263 263 264 264 264 264 264 264 264 263 262 262 263 262 262 263 263 262 261 263 264 266 265 264 265 265 265 266 267 267 267 268 268 269 270 271 273
263 262 262 263 264 264 264 264 264 264 263 263 263 263 262 262 262 263 262 262 263 265 267 266 264 264 265 266 266 266 267 268 268 268 269 270 271 273
263 263 263 263 263 264 264 263 263 262 262 262 262 262 261 261 262 262 262 263 264 265 267 267 265 265 266 265 266 267 267 268 269 269 270 271 272 272
262 262 263 263 263 263 263 263 262 261 260 260 260 260 260 261 262 261 261 263 265 266 266 266 267 267 265 265 265 265 267 268 269 270 271 272 272 274
261 262 262 262 262 263 262 262 261 260 259 260 261 261 261 262 263 262 262 263 265 265 265 266 266 266 266 266 265 266 268 269 271 271 272 272 272 273
260 261 261 261 262 262 261 261 262 262 262 262 262 261 262 263 263 264 263 263 265 266 264 265 266 266 265 264 264 265 268 269 270 271 271 271 272 272
261 262 262 262 262 262 261 262 263 263 263 263 263 262 263 264 265 265 265 265 265 265 266 266 265 265 265 265 264 265 267 269 270 270 271 272 272 273
261 261 262 261 261 262 263 264 265 265 265 264 264 263 262 262 262 262 263 264 265 266 265 266 266 265 263 264 264 264 267 269 269 270 271 272 272 274
260 261 262 262 264 264 265 266 267 268 267 266 265 263 261 261 261 261 263 264 264 264 264 265 266 267 266 265 266 266 267 267 269 269 270 272 273 274
260 262 263 264 265 265 266 266 267 268 267 266 264 263 262 261 260 261 262 263 264 264 264 265 266 267 268 268 268 267 267 267 268 269 270 272 274 276
261 263 264 264 265 265 265 266 267 266 265 265 264 264 263 261 260 260 262 263 264 263 263 266 268 268 268 270 270 270 269 268 268 270 272 272 275 277
262 263 263 264 264 262 263 265 266 264 263 263 263 262 261 260 261 263 264 263 263 263 264 266 268 267 268 271 272 272 271 271 271 271 272 274 276 278
262 262 262 262 261 260 260 261 261 260 259 260 260 259 260 262 262 264 263 263 264 263 262 263 266 266 267 271 271 273 272 272 272 272 274 275 277 280
261 260 261 261 259 258 259 260 259 256 255 256 256 257 261 263 261 261 262 265 265 263 261 262 264 266 268 269 270 273 275 274 273 274 276 277 280 283
259 259 259 258 257 257 258 258 258 256 256 255 254 255 259 260 258 258 261 265 264 260 259 260 263 265 267 268 270 273 275 275 276 279 280 282 284 285
256 257 257 257 256 256 256 256 257 256 255 252 252 253 254 254 254 256 260 264 263 257 256 258 261 264 267 270 270 272 276 277 279 282 282 284 285 284
255 256 256 256 256 256 256 255 255 254 253 251 249 249 249 249 250 255 258 258 257 254 253 257 259 262 266 268 269 271 275 278 280 282 283 284 286 289
Height
5606 5607 5608 5609 5610 5611 5613 5614 5616 5618 5620 5621 5623 5624 5625 5628 5630 5632 5634 5636 5638 5640 5642 5643 5644 5646 5647 5648 5649 5650 5651 5653 5653 5654 5655 5655 5655 5655
5594 5595 5596 5598 5599 5601 5602 5603 5604 5606 5608 5610 5611 5613 5614 5616 5618 5620 5622 5624 5626 5627 5629 5630 5631 5633 5634 5635 5636 5637 5638 5639 5640 5641 5641 5642 5643 5643
5584 5584 5585 5587 5588 5590 5591 5592 5594 5595 5596 5598 5599 5601 5603 5604 5606 5608 5610 5612 5614 5615 5617 5618 5619 5620 5621 5622 5623 5624 5625 5626 5627 5628 5628 5629 5630 5630
5573 5574 5575 5576 5578 5579 5580 5581 5582 5584 5585 5587 5588 5590 5591 5593 5594 5596 5598 5600 5602 5603 5605 5606 5607 5608 5609 5610 5611 5612 5613 5614 5615 5616 5616 5617 5617 5617
5562 5563 5565 5566 5567 5568 5569 5570 5571 5572 5574 5575 5577 5579 5580 5581 5583 5584 5586 5588 5590 5592 5593 5594 5595 5596 5597 5598 5598 5600 5601 5602 5602 5603 5604 5604 5604 5604
5552 5553 5554 5556 5557 5557 5559 5560 5561 5562 5563 5564 5566 5568 5569 5570 5572 5573 5575 5577 5579 5580 5581 5583 5584 5584 5585 5586 5587 5588 5589 5589 5590 5591 5591 5591 5592 5592
5541 5543 5544 5545 5546 5547 5548 5549 5550 5551 5552 5554 5556 5557 5558 5560 5561 5562 5564 5566 5567 5569 5570 5571 5572 5573 5573 5574 5575 5576 5577 5577 5578 5579 5579 5579 5579 5579
5531 5532 5533 5535 5536 5537 5538 5539 5540 5541 5542 5543 5545 5546 5548 5549 5551 5552 5553 5555 5557 5559 5558 5559 5560 5561 5561 5563 5563 5564 5565 5565 5566 5566 5567 5567 5567 5567
5521 5522 5523 5525 5525 5526 5527 5528 5529 5530 5531 5533 5534 5535 5537 5539 5540 5541 5542 5544 5546 5547 5547 5547 5548 5549 5550 5550 5551 5552 5553 5553 5553 5554 5554 5555 5554 5554
5512 5513 5514 5515 5516 5517 5517 5518 5519 5520 5521 5522 5524 5525 5526 5527 5528 5530 5532 5533 5534 5535 5536 5536 5537 5538 5538 5538 5539 5540 5540 5541 5542 5542 5542 5542 5542 5542
5503 5504 5505 5506 5507 5508 5508 5509 5509 5510 5511 5512 5513 5514 5515 5516 5518 5519 5521 5522 5523 5524 5525 5525 5526 5526 5526 5527 5527 5528 5528 5529 5530 5530 5530 5530 5530 5530
5495 5496 5497 5498 5498 5499 5499 5500 5501 5502 5502 5503 5504 5505 5505 5506 5507 5508 5509 5510 5512 5513 5514 5514 5515 5515 5516 5517 5517 5517 5517 5518 5518 5518 5518 5518 5518 5518
5487 5489 5489 5490 5491 5491 5491 5492 5493 5493 5494 5494 5494 5495 5496 5497 5497 5498 5499 5500 5502 5503 5504 5504 5505 5506 5506 5507 5507 5507 5507 5508 5508 5508 5508 5507 5507 5507
5480 5481 5482 5483 5483 5484 5484 5485 5485 5485 5485 5485 5486 5486 5487 5488 5488 5489 5490 5491 5492 5494 5494 5495 5496 5496 5497 5497 5498 5498 5498 5498 5499 5499 5498 5498 5497 5497
5473 5474 5475 5476 5476 5476 5477 5477 5477 5478 5478 5478 5478 5479 5479 5479 5480 5481 5482 5483 5484 5485 5486 5487 5488 5488 5489 5489 5490 5490 5490 5490 5490 5490 5490 5489 5489 5488
5466 5467 5468 5468 5469 5469 5470 5470 5470 5471 5471 5471 5471 5471 5471 5472 5473 5474 5475 5476 5477 5478 5478 5479 5480 5481 5482 5482 5482 5482 5482 5482 5482 5482 5482 5481 5480 5480
5459 5460 5461 5461 5462 5463 5463 5464 5464 5464 5464 5465 5465 5465 5465 5466 5466 5467 5468 5469 5470 5471 5472 5473 5473 5474 5474 5475 5475 5475 5475 5475 5475 5475 5475 5474 5473 5472
5452 5453 5454 5455 5455 5456 5457 5457 5457 5458 5458 5459 5459 5459 5460 5460 5461 5462 5463 5464 5464 5465 5466 5466 5467 5467 5468 5468 5468 5468 5468 5468 5468 5468 5467 5467 5467 5465
5446 5447 5448 5448 5449 5450 5451 5451 5452 5452 5453 5453 5454 5455 5455 5456 5456 5457 5458 5458 5459 5459 5460 5460 5461 5461 5462 5462 5462 5461 5462 5462 5462 5462 5461 5461 5460 5459
5440 5441 5442 5443 5443 5444 5445 5446 5446 5447 5448 5448 5449 5450 5451 5451 5452 5453 5453 5454 5454 5454 5455 5455 5456 5456 5457 5457 5457 5457 5456 5456 5456 5456 5456 5455 5455 5454
5435 5436 5437 5437 5438 5439 5440 5440 5441 5442 5443 5443 5444 5445 5446 5447 5448 5448 5449 5449 5449 5450 5451 5451 5451 5452 5452 5452 5453 5452 5452 5451 5451 5451 5451 5450 5450 5449
5431 5431 5432 5432 5433 5434 5434 5435 5436 5437 5437 5438 5440 5441 5442 5442 5443 5444 5444 5445 5445 5446 5447 5447 5448 5448 5448 5449 5449 5448 5448 5448 5447 5447 5446 5446 5445 5444
5426 5427 5427 5428 5429 5429 5430 5430 5431 5432 5433 5434 5435 5436 5437 5438 5439 5440 5440 5441 5442 5442 5443 5444 5444 5444 5445 5445 5445 5445 5445 5444 5444 5443 5442 5441 5440 5439